Juanda, Indonesia

5:19 AM WIB on October 20, 2017 (GMT +0700)
Juanda

Weather History for WARR - December, 2012

Change the Weather History Date:

Saturday, December 8, 2012

  Actual Average Record
Temperature  
Mean Temperature 84 °F -  
Max Temperature 91 °F - - ()
Min Temperature 77 °F - - ()
Cooling Degree Days 19    
Growing Degree Days 34 (Base 50)    
Moisture  
Dew Point 75 °F    
Average Humidity 73    
Maximum Humidity 94    
Minimum Humidity 55    
Precipitation  
Precipitation 0.00 in - - ()
Sea Level Pressure  
Sea Level Pressure 29.82 in    
Wind  
Wind Speed 5 mph ()    
Max Wind Speed 10 mph    
Max Gust Speed -    
Visibility 5.1 miles    
Events      
T = Trace of Precipitation, MM = Missing Value Source: Averaged Metar Reports

Daily Weather History Graph

Daily Weather History Graph

Search for Another Location

Airport or City:

Trip Planner

Search our weather history database for the weather conditions in past years. The results will help you decide how hot, cold, wet, or windy it might be!

Date:

Astronomy

Dec. 08, 2012 Rise Set
Actual Time 5:04 AM WIB 5:37 PM WIB
Civil Twilight 4:41 AM WIB 5:59 PM WIB
Nautical Twilight 4:15 AM WIB 6:26 PM WIB
Astronomical Twilight 3:48 AM WIB 6:53 PM WIB
Moon 12:10 AM WIB (12/8) 12:39 PM WIB (12/8)
Length of Visible Light 13h 17m
Length of Day
12h 32m
Waning Crescent, 33% of the Moon is Illuminated
Dec 8
Waning Crescent
Dec 13
New
Dec 20
First Quarter
Dec 28
Full
Jan 5
Last Quarter

Hourly Weather History & Observations

Time (WIB) Temp. Heat Index Dew Point Humidity Pressure Visibility Wind Dir Wind Speed Gust Speed Precip Events Conditions
12:00 AM 78.8 °F - 73.4 °F 83% 29.83 in 3.7 mi West 3.5 mph - N/A   Partly Cloudy
1:30 AM 78.8 °F - 75.2 °F 89% 29.80 in 3.7 mi WSW 4.6 mph - N/A   Partly Cloudy
5:00 AM 77.0 °F - 75.2 °F 94% 29.83 in 0.6 mi West 3.5 mph - N/A   Haze
5:30 AM 77.0 °F - 75.2 °F 94% 29.83 in 0.6 mi WSW 3.5 mph - N/A   Haze
6:00 AM 78.8 °F - 77.0 °F 94% 29.83 in 0.9 mi West 3.5 mph - N/A   Haze
6:30 AM 80.6 °F 87.1 °F 77.0 °F 89% 29.83 in 1.6 mi Variable 2.3 mph - N/A   Haze
7:00 AM 82.4 °F 90.9 °F 77.0 °F 84% 29.86 in 1.9 mi SW 4.6 mph - N/A   Haze
7:30 AM 86.0 °F 95.1 °F 75.2 °F 70% 29.86 in 4.3 mi SSW 3.5 mph - N/A   Haze
8:30 AM 87.8 °F 97.6 °F 75.2 °F 66% 29.86 in 5.6 mi SE 5.8 mph - N/A   Partly Cloudy
9:00 AM 89.6 °F 99.8 °F 75.2 °F 62% 29.86 in 6.2 mi ESE 8.1 mph - N/A   Partly Cloudy
9:30 AM 89.6 °F 99.8 °F 75.2 °F 62% 29.86 in 6.2 mi ESE 8.1 mph - N/A   Partly Cloudy
10:00 AM 89.6 °F 99.8 °F 75.2 °F 62% 29.86 in 6.2 mi SE 8.1 mph - N/A   Partly Cloudy
10:30 AM 91.4 °F 102.5 °F 75.2 °F 59% 29.83 in 6.2 mi ESE 8.1 mph - N/A   Partly Cloudy
11:00 AM 91.4 °F 102.5 °F 75.2 °F 59% 29.83 in 6.2 mi East 9.2 mph - N/A   Partly Cloudy
11:30 AM 91.4 °F 102.5 °F 75.2 °F 59% 29.80 in 6.2 mi East 9.2 mph - N/A   Partly Cloudy
12:30 PM 91.4 °F 100.1 °F 73.4 °F 55% 29.77 in 6.2 mi SE 10.4 mph - N/A   Partly Cloudy
1:00 PM 91.4 °F 100.1 °F 73.4 °F 55% 29.77 in 6.2 mi ESE 9.2 mph - N/A   Partly Cloudy
2:00 PM 86.0 °F 93.4 °F 73.4 °F 66% 29.74 in 6.2 mi NNE 10.4 mph - N/A   Partly Cloudy
3:00 PM 87.8 °F 97.6 °F 75.2 °F 66% 29.74 in 6.2 mi NNE 8.1 mph - N/A   Partly Cloudy
3:30 PM 87.8 °F 97.6 °F 75.2 °F 66% 29.74 in 6.2 mi NNE 6.9 mph - N/A   Partly Cloudy
4:00 PM 87.8 °F 95.6 °F 73.4 °F 62% 29.74 in 6.2 mi NNE 5.8 mph - N/A   Partly Cloudy
5:00 PM 86.0 °F 93.4 °F 73.4 °F 66% 29.77 in 6.2 mi NE 8.1 mph - N/A   Partly Cloudy
6:00 PM 84.2 °F 92.3 °F 75.2 °F 74% 29.80 in 6.2 mi North 5.8 mph - N/A   Partly Cloudy
6:30 PM 84.2 °F 90.9 °F 73.4 °F 70% 29.80 in 6.2 mi NNE 5.8 mph - N/A   Partly Cloudy
7:30 PM 84.2 °F 90.9 °F 73.4 °F 70% 29.83 in 6.2 mi NNE 3.5 mph - N/A   Partly Cloudy
8:30 PM 77.0 °F - 71.6 °F 83% 29.83 in 6.2 mi West 8.1 mph - N/A   Partly Cloudy
9:00 PM 84.2 °F 92.3 °F 75.2 °F 74% 29.83 in - North - - N/A   Partly Cloudy
9:30 PM 82.4 °F 89.5 °F 75.2 °F 79% 29.86 in 6.2 mi West 3.5 mph - N/A   Partly Cloudy
10:00 PM 82.4 °F 89.5 °F 75.2 °F 79% 29.83 in 6.2 mi West 3.5 mph - N/A   Partly Cloudy
11:00 PM 82.4 °F 89.5 °F 75.2 °F 79% 29.83 in 6.2 mi SW 3.5 mph - N/A   Partly Cloudy
11:30 PM 80.6 °F 86.2 °F 75.2 °F 84% 29.83 in 6.2 mi WSW 2.3 mph - N/A   Partly Cloudy